Wind_Gust
22 23 23 23 24 23 22 23 24 24 24 25 24 24 24 24 24 24 24 25 25 26 26 28 28 30 31 30 31 29 29 20 24 16 9 12 6 5 6 8 9 11 15 6 11 14 8 8 9 14 8 4 9 7 9 6 8 7 19 20 21 15 20 15 22 20 10 18 15 9 8 6 14 16 17 21 18 7 7 22 14 13 12 24 12 27 27 22
23 23 24 24 24 25 25 24 25 24 24 25 24 24 24 24 24 24 24 24 25 26 26 27 28 30 30 29 30 30 26 16 17 13 20 11 7 7 7 9 8 12 11 7 8 7 7 8 7 11 6 9 4 10 6 15 12 16 16 20 29 19 18 15 15 13 14 18 13 14 17 11 13 10 18 19 10 12 12 8 11 14 16 14 18 26 30 31
23 24 24 24 25 25 25 25 24 24 25 24 24 24 24 24 24 23 23 24 25 25 26 27 27 28 29 29 29 27 19 16 7 6 6 6 10 10 8 9 7 9 5 3 2 3 4 5 9 7 6 6 7 10 7 18 14 14 16 25 28 13 11 15 12 13 13 9 16 16 22 10 9 10 13 18 25 18 10 21 8 20 16 21 23 19 25 28
25 25 25 25 25 25 25 25 25 24 24 26 25 24 24 24 23 23 23 24 24 24 26 27 27 27 28 29 28 23 10 8 4 3 4 7 6 7 10 9 7 5 4 2 2 6 5 7 7 5 6 5 8 7 14 16 23 13 17 27 26 14 14 12 11 13 12 12 20 18 21 27 18 8 10 13 23 24 13 20 22 16 23 25 29 24 24 25
25 24 24 25 26 26 26 26 25 25 25 25 24 24 24 24 24 23 23 23 23 24 24 25 26 26 28 29 30 13 8 8 6 3 5 10 10 8 10 9 9 2 2 5 7 3 4 5 4 4 6 13 5 4 13 10 14 10 22 21 12 8 19 9 14 15 14 11 15 14 14 33 16 11 11 12 19 35 21 14 14 31 26 31 27 33 28 27
25 25 25 26 26 26 26 26 26 25 25 25 24 24 24 24 24 23 23 23 24 24 24 24 25 26 26 29 25 6 3 9 4 6 13 11 12 11 12 11 11 3 4 7 8 9 11 7 4 5 7 6 7 16 9 12 7 24 18 15 17 10 8 10 14 12 14 20 20 20 19 17 25 16 11 13 20 25 18 13 20 26 32 32 34 29 25 25
25 26 26 26 26 27 27 26 26 25 26 25 25 25 24 24 23 23 23 23 23 23 23 23 22 25 26 24 19 4 4 18 5 12 15 15 14 14 14 12 9 6 9 11 12 11 6 8 8 5 5 5 9 13 11 6 8 17 32 9 15 13 18 7 10 14 13 17 24 24 15 19 22 31 18 17 12 17 24 12 18 16 28 32 30 30 30 32
26 26 27 27 27 27 27 26 26 27 27 26 26 26 24 24 24 24 23 23 22 22 21 21 20 23 23 15 14 9 5 14 12 8 19 17 15 13 13 10 11 6 12 7 7 8 6 9 8 7 8 9 7 7 5 9 13 19 30 12 10 8 15 13 14 9 13 21 18 12 20 24 23 32 16 15 16 17 19 12 14 16 21 21 29 28 28 28
27 27 27 27 27 28 27 27 27 27 26 27 26 26 26 25 25 24 24 23 22 22 20 20 22 20 18 6 5 7 11 8 5 10 15 15 13 12 9 10 9 7 6 6 5 5 7 4 11 11 7 11 5 10 12 5 21 16 12 10 11 11 7 11 13 18 20 13 12 17 21 22 23 19 26 21 18 21 14 10 16 21 17 23 20 27 30 26
27 27 27 27 28 28 27 28 28 28 28 27 27 27 26 26 25 25 24 23 22 21 21 20 20 19 13 12 7 8 12 6 8 14 13 12 13 12 11 9 6 6 8 8 9 8 6 7 5 8 6 10 7 12 7 8 15 12 11 6 7 9 12 10 17 19 18 21 13 22 22 29 15 12 31 25 18 16 9 11 14 20 22 25 22 20 22 25
28 28 29 29 28 28 28 28 28 28 29 29 28 28 28 27 27 26 25 24 22 22 20 20 18 16 11 8 6 11 10 5 7 13 11 10 10 10 7 10 5 8 4 6 8 5 4 6 6 13 6 10 14 10 6 10 9 8 9 12 9 9 13 13 15 16 15 28 20 22 26 21 18 14 29 33 16 17 15 15 18 19 20 24 24 25 24 25
28 29 29 28 28 28 28 29 29 30 30 30 29 29 28 27 27 26 25 24 23 20 18 16 17 10 10 7 8 22 6 4 13 9 11 11 12 11 11 10 5 4 3 7 7 8 5 5 6 8 10 11 9 12 12 10 11 7 7 9 11 10 22 9 17 17 13 21 15 15 19 27 26 29 32 31 26 14 15 18 21 19 23 23 22 23 20 24
29 29 29 29 29 29 30 30 30 30 31 30 30 29 29 28 29 29 26 22 19 20 19 17 12 6 5 10 21 21 20 22 21 21 17 9 11 12 12 10 7 5 5 5 7 7 7 6 4 6 4 6 9 15 15 15 7 10 3 6 8 13 20 17 10 9 13 20 9 16 35 28 38 34 32 26 29 13 12 15 17 16 18 25 23 23 23 16
29 29 29 29 30 30 31 31 31 31 31 31 31 31 30 31 31 31 27 24 22 21 17 12 6 5 5 18 24 17 11 13 14 17 15 10 5 8 4 4 6 7 5 6 8 7 6 5 4 6 7 4 9 7 15 15 6 7 9 5 12 8 31 8 15 7 18 15 12 14 31 33 30 32 34 27 26 17 14 13 15 24 18 19 23 23 20 19
29 29 29 29 30 31 31 31 31 31 32 33 33 33 33 33 33 30 28 24 21 17 13 9 5 7 9 23 14 24 30 17 16 22 14 5 5 8 7 7 7 5 7 9 7 4 7 6 4 6 9 4 5 6 10 8 8 7 11 23 9 17 16 6 7 11 23 15 14 14 33 36 28 34 31 32 29 18 21 18 15 19 20 18 18 21 27 25
29 29 30 30 30 31 31 31 31 32 32 34 35 36 35 32 31 29 25 19 19 15 10 6 7 6 8 23 14 14 11 7 11 19 13 9 10 9 6 4 4 6 6 5 9 5 4 4 6 9 7 7 6 5 6 11 12 9 12 9 19 11 13 11 16 9 12 13 11 26 38 25 27 31 24 24 26 29 24 26 21 16 19 21 18 19 20 20
30 29 30 30 30 31 31 31 32 32 33 33 37 35 34 31 26 21 17 15 10 7 9 7 5 10 6 11 14 10 8 12 7 7 7 12 12 8 6 7 4 7 6 6 6 6 5 5 5 6 8 7 5 9 5 9 13 16 10 19 8 8 6 20 8 11 7 14 21 27 39 24 12 12 18 14 24 31 35 31 25 23 18 20 18 21 21 21
31 31 30 30 30 31 30 31 31 32 33 34 33 30 40 33 21 16 13 10 8 7 6 6 9 4 22 9 5 5 6 11 17 19 11 5 11 7 5 5 2 4 5 7 6 8 5 7 8 8 4 5 5 5 16 23 26 20 11 7 8 6 9 11 16 8 12 13 24 21 30 24 19 17 17 15 18 30 34 34 27 25 19 20 18 21 23 26
31 31 30 31 31 30 31 31 31 31 31 32 27 28 22 8 5 8 16 9 8 6 8 9 7 10 9 8 8 9 10 14 15 7 8 9 6 7 6 2 4 3 4 7 9 8 5 5 10 4 11 9 14 17 20 20 9 12 8 7 4 9 15 23 16 19 9 16 22 25 32 24 24 21 19 17 10 21 28 29 27 21 24 23 22 23 24 24
31 31 31 31 31 31 31 31 30 30 29 24 27 24 11 15 13 9 6 3 8 13 13 8 20 13 18 19 19 10 15 12 9 6 6 7 11 7 5 4 4 9 4 5 6 6 6 10 11 15 19 17 10 10 14 12 10 11 10 6 11 15 16 10 15 13 16 20 22 25 25 19 18 25 24 20 17 8 13 22 27 22 23 22 21 23 26 25
32 32 32 32 32 31 31 29 28 28 27 16 11 11 12 10 10 18 23 18 18 16 19 19 18 21 24 9 11 16 19 17 10 9 11 6 7 10 6 6 7 3 4 4 6 6 10 7 18 19 17 9 7 6 7 10 9 9 10 10 14 14 20 16 15 15 21 24 21 15 21 24 22 20 25 22 22 22 17 16 21 24 22 23 21 22 24 26
32 32 33 32 33 31 30 28 28 27 25 6 7 10 8 5 4 8 9 23 15 16 20 23 15 23 20 20 17 11 12 22 22 16 8 10 8 14 6 9 7 11 4 3 8 8 7 17 21 14 10 6 6 9 10 8 8 12 15 13 14 20 16 15 19 19 18 23 31 18 20 24 24 21 19 24 27 32 26 19 18 21 22 21 23 22 22 18
32 33 33 32 31 31 28 26 26 27 12 10 10 7 7 8 5 7 5 12 27 9 17 15 15 21 22 18 19 9 14 15 21 14 7 12 5 14 9 8 6 7 6 6 9 4 12 24 22 11 7 7 11 11 11 11 11 12 11 15 21 14 12 17 22 20 24 25 13 20 24 23 16 20 22 23 30 29 28 23 18 15 24 25 23 23 23 21
33 34 33 32 32 29 27 25 23 10 7 9 10 8 9 6 5 7 10 10 17 15 9 10 15 11 14 15 13 21 16 12 9 15 10 15 16 9 11 11 8 8 12 10 11 16 24 15 7 7 9 10 14 12 10 9 12 11 15 16 18 15 20 20 16 20 22 26 19 18 25 27 21 24 32 24 25 26 26 26 24 18 14 17 18 18 23 26
34 33 33 32 29 29 26 24 9 6 11 10 4 5 6 7 4 6 9 11 8 19 7 4 9 10 14 7 6 14 11 11 13 10 7 16 9 8 13 12 11 13 11 12 11 15 20 16 8 10 9 9 12 12 12 10 11 13 14 16 15 15 19 17 18 23 19 24 21 18 27 33 21 24 28 21 23 25 26 27 32 28 24 15 13 16 17 20
34 34 32 29 29 26 23 9 6 13 12 7 6 8 6 7 6 4 10 7 10 11 6 7 9 7 7 4 8 6 9 12 11 18 12 11 13 18 10 15 17 13 11 10 17 22 21 8 12 15 14 12 11 13 8 10 14 13 19 13 17 19 19 19 22 22 21 28 21 15 27 32 14 19 18 19 23 28 24 27 31 32 30 25 21 17 18 21
35 34 31 29 25 20 12 6 5 10 4 6 6 11 10 8 4 9 10 11 11 10 7 8 7 14 12 4 7 4 19 9 11 7 9 10 13 12 16 12 8 10 10 8 12 27 13 9 11 9 8 12 14 19 14 12 12 25 9 8 11 17 20 22 26 26 25 15 27 24 21 28 22 27 20 21 24 24 25 29 29 31 30 27 22 20 17 20
36 35 32 28 23 12 8 10 13 9 10 8 6 9 10 6 6 9 10 10 17 10 7 9 6 6 5 5 3 9 14 7 16 9 4 4 6 6 18 12 15 13 11 12 22 6 12 9 13 13 12 13 17 12 7 12 20 19 7 11 17 16 17 20 24 27 20 13 27 28 19 24 32 21 12 23 27 30 32 35 31 28 29 29 26 23 19 21
36 35 31 26 22 18 9 7 5 9 9 5 9 10 9 6 11 8 8 13 13 13 14 8 11 5 7 7 7 5 9 7 13 6 3 6 9 6 15 9 8 6 10 16 25 13 11 12 14 14 13 19 17 12 10 14 16 13 15 13 13 14 19 19 23 24 19 15 28 32 21 24 33 9 15 16 31 36 38 32 28 26 26 26 28 20 19 21
38 33 30 22 13 8 7 3 10 11 10 11 12 12 7 8 9 10 10 6 11 11 5 10 7 7 6 15 13 6 11 12 13 9 5 8 7 10 10 8 6 7 9 9 20 16 8 6 9 13 17 17 11 9 12 12 17 15 12 12 19 21 22 19 22 23 14 27 35 32 26 18 31 16 27 31 39 32 22 22 24 21 23 24 25 25 20 22
38 34 26 18 7 7 8 7 15 15 14 13 10 8 7 12 11 8 8 13 9 13 12 6 8 7 11 10 24 13 11 12 9 12 12 5 6 8 7 11 9 10 10 11 18 8 7 7 14 14 10 10 6 13 9 11 8 7 13 13 10 17 15 19 22 13 26 32 30 30 29 19 31 25 26 26 15 16 23 27 27 25 25 28 23 22 22 22
37 31 25 13 9 5 7 8 6 8 11 7 5 9 10 7 14 17 9 6 15 13 6 11 7 10 11 10 13 12 15 11 5 9 13 13 9 11 11 19 12 13 17 17 22 5 18 21 12 10 8 13 10 11 9 9 8 13 10 8 13 13 18 24 20 27 26 41 26 24 22 24 43 37 17 17 16 19 25 30 32 30 30 30 26 23 22 23
34 28 23 8 9 4 8 13 8 11 9 8 9 7 11 14 9 7 10 10 12 5 13 9 16 12 16 15 16 11 5 9 6 10 8 7 11 14 10 18 16 21 18 9 17 9 16 8 12 18 13 17 15 16 13 9 16 14 17 17 18 24 20 19 19 20 24 35 25 21 8 37 28 18 25 33 34 29 23 24 27 32 34 33 29 23 23 25
31 25 12 6 12 14 8 3 7 7 9 8 10 12 14 17 9 8 9 5 9 7 12 12 18 21 12 15 10 5 8 8 4 6 8 6 7 11 11 11 16 15 17 5 16 17 16 19 22 18 19 15 25 28 21 15 12 21 15 20 17 23 30 24 25 36 36 20 23 24 25 28 15 20 16 26 28 29 31 30 29 31 33 33 31 28 25 26
31 15 6 6 7 12 15 11 6 4 7 12 17 17 14 9 6 8 9 8 11 10 12 7 19 16 15 7 7 8 11 14 6 6 9 10 12 12 12 12 20 17 10 12 13 13 20 25 11 18 12 19 25 24 24 20 15 14 17 15 26 30 18 15 15 17 21 18 25 30 38 12 24 12 17 24 27 26 29 30 28 29 28 28 25 25 25 26
15 13 4 7 4 7 12 11 5 4 8 15 17 18 9 5 9 5 11 7 10 13 20 22 16 9 10 7 8 7 6 12 9 16 13 17 17 17 13 12 22 25 24 28 12 16 10 27 9 9 12 13 17 15 25 24 31 25 17 28 27 18 22 24 25 22 11 14 32 17 25 30 28 25 25 25 27 30 26 29 30 31 29 27 23 24 26 28
14 14 10 7 6 5 8 7 8 8 13 14 15 9 7 9 7 7 7 10 14 12 10 16 13 9 9 11 8 10 9 9 13 11 18 11 15 20 18 15 12 22 25 25 13 12 16 14 9 13 15 19 21 21 23 26 26 15 31 26 23 22 23 26 21 14 17 19 30 22 28 25 18 43 19 26 27 28 30 31 31 31 32 30 23 24 28 28
14 10 8 7 11 6 9 10 10 11 11 11 12 9 5 7 5 8 6 9 8 5 12 9 13 5 10 9 14 11 6 8 7 9 13 13 19 6 11 10 15 24 25 19 17 10 12 24 21 16 25 10 15 24 24 26 31 27 18 20 30 27 29 22 23 20 15 20 21 24 17 26 22 28 12 27 32 31 32 31 29 30 30 29 23 23 27 30
5 5 9 9 11 11 11 13 12 12 9 14 8 15 7 12 8 8 9 9 8 8 9 10 12 10 9 12 12 15 13 20 14 16 15 12 16 10 15 11 9 20 20 22 24 11 10 15 14 6 11 12 10 11 24 25 26 26 20 18 20 13 19 24 30 26 25 19 18 19 17 38 31 26 20 24 25 31 34 29 28 30 30 28 24 24 28 27
11 9 8 7 8 12 12 9 9 10 13 10 5 11 8 13 13 12 11 8 10 7 11 8 9 13 9 15 11 23 12 15 17 13 7 8 15 11 14 8 9 12 18 23 17 13 10 8 14 10 13 12 13 18 24 25 25 29 30 28 21 28 14 16 16 27 23 19 15 16 26 24 19 20 26 29 30 30 31 32 29 29 29 27 23 25 27 28
7 9 8 7 11 9 11 12 12 10 9 9 5 11 8 13 13 15 13 12 13 11 14 12 10 9 9 15 17 11 17 12 11 10 9 9 10 14 12 14 8 7 16 20 15 14 14 13 19 18 18 17 16 16 18 22 25 26 31 30 21 21 17 19 19 18 27 25 26 15 32 25 24 19 26 33 33 35 33 31 30 27 27 26 24 25 30 30
9 11 7 7 12 6 10 12 10 4 8 7 14 18 23 16 13 13 11 8 12 17 8 10 10 13 13 14 20 12 15 13 9 8 9 11 7 12 11 7 6 6 20 26 26 20 16 11 10 19 20 20 15 19 20 16 19 20 24 25 22 17 17 19 24 20 17 27 16 19 23 31 33 24 25 30 31 31 31 28 28 27 27 25 25 28 31 32
14 7 11 10 11 3 8 7 5 9 8 14 12 13 9 15 11 13 13 8 16 7 8 11 11 11 13 16 12 13 9 18 9 8 6 6 12 21 22 20 12 9 13 15 13 14 12 15 13 21 15 20 17 18 19 17 18 18 23 21 23 26 21 23 20 11 21 23 22 19 29 34 32 22 20 20 20 20 22 23 27 27 22 21 23 26 28 25
8 8 14 10 9 7 11 10 13 14 14 12 9 17 12 12 9 16 15 13 14 9 10 12 9 16 20 12 14 13 7 14 8 12 12 6 14 9 13 14 16 14 16 17 22 16 20 13 13 15 18 13 13 13 13 13 22 25 20 27 22 20 20 18 18 16 17 19 20 16 27 25 36 12 15 13 22 21 21 20 21 28 23 19 22 25 27 26
12 8 8 16 14 12 8 5 7 10 15 17 21 21 19 11 6 12 17 17 14 9 11 14 16 13 18 9 16 14 12 13 16 10 11 7 15 15 20 16 18 19 19 17 16 21 15 9 16 16 18 18 16 15 22 21 29 21 16 20 24 24 24 20 23 20 19 12 10 16 20 36 33 26 25 25 18 18 16 20 19 22 21 22 20 22 24 24
14 15 16 15 17 14 11 5 9 9 12 15 21 13 8 19 15 13 13 19 12 10 17 19 13 8 16 13 17 10 10 13 16 10 11 12 14 15 11 23 15 21 24 30 24 21 13 10 15 21 21 24 23 10 9 15 19 25 19 20 26 23 22 21 14 15 27 16 18 25 29 33 37 34 26 25 20 22 26 22 15 19 19 21 24 24 24 26
9 15 14 21 18 10 7 7 9 11 13 10 15 13 12 14 21 19 10 21 9 22 19 11 10 15 16 20 15 15 9 11 15 18 17 15 9 14 23 23 17 21 33 28 23 13 11 13 18 20 24 28 19 18 15 16 23 20 20 20 19 22 22 21 22 33 15 15 27 39 18 24 34 29 25 25 28 27 23 20 18 16 19 21 20 22 19 22
17 6 6 4 7 15 20 11 16 21 22 7 12 8 9 18 19 26 23 8 16 15 15 7 8 13 19 18 22 18 8 13 9 8 10 9 13 11 18 13 25 15 15 19 20 18 13 17 11 17 26 25 24 23 20 17 18 20 19 21 21 22 22 29 32 29 17 23 38 27 23 20 30 27 29 31 30 28 26 27 25 20 20 18 19 19 20 22
10 7 4 6 11 7 9 17 21 17 21 15 12 6 17 17 21 18 18 24 18 16 10 20 22 24 24 23 15 13 11 17 9 7 10 9 8 13 12 9 12 12 12 9 12 8 11 19 16 16 22 22 22 23 21 20 18 17 19 22 22 21 25 26 26 20 24 25 28 31 27 30 37 36 34 35 30 25 25 22 22 17 21 21 21 22 23 23
13 9 10 8 10 13 11 9 10 10 14 14 11 8 20 16 21 29 26 18 27 18 15 19 24 27 23 22 17 16 12 11 16 20 9 9 17 10 9 11 10 10 12 8 9 6 8 18 10 11 13 15 15 14 18 24 19 24 17 21 23 22 22 25 21 20 20 26 31 31 32 38 44 32 27 27 21 18 19 20 19 17 21 23 22 23 23 25
6 3 6 12 17 8 9 8 12 15 12 10 17 16 20 17 20 23 29 21 17 20 22 21 24 29 21 18 19 15 12 16 20 22 21 17 19 8 9 10 10 14 15 8 7 7 11 15 9 11 15 15 12 15 15 18 19 22 19 19 21 20 21 20 27 23 19 32 26 19 24 37 38 25 19 19 19 16 18 20 17 12 19 23 25 23 22 24
7 5 4 6 11 9 13 10 11 9 6 8 14 16 21 23 21 22 29 11 11 18 19 20 23 22 22 21 21 20 24 24 24 26 21 20 19 19 17 18 14 13 10 9 6 11 11 13 16 13 14 10 12 13 15 20 19 14 18 27 24 20 18 17 21 16 27 26 23 22 34 32 27 17 19 23 20 16 17 17 13 11 9 20 28 25 25 24
Wind_Speed
17 18 18 18 18 18 17 18 19 19 19 20 19 18 18 19 19 19 19 19 20 20 20 21 22 22 23 23 23 22 22 9 14 8 5 6 3 4 4 4 6 9 11 2 7 8 3 5 6 10 3 2 1 1 2 0 1 2 4 5 9 5 9 6 8 8 4 6 6 4 5 4 4 1 2 3 5 2 4 2 2 3 5 1 3 10 11 12
18 18 18 19 19 19 20 18 18 18 18 18 18 19 19 18 18 18 19 19 19 20 20 20 21 22 23 22 23 23 16 8 10 7 7 4 5 5 4 4 6 9 8 4 5 4 4 5 4 6 3 2 1 2 2 2 2 5 2 5 13 6 5 9 6 8 6 8 2 7 4 6 5 5 1 1 1 2 3 3 2 1 3 8 8 8 11 14
18 18 18 19 20 18 18 19 19 18 19 19 18 18 18 18 19 18 18 19 19 20 20 20 20 22 22 23 22 20 11 6 1 4 3 1 7 5 4 5 5 7 3 1 0 1 0 1 1 1 2 2 0 3 1 2 4 5 5 8 10 3 4 9 7 8 7 5 4 5 4 5 3 3 1 2 4 5 6 3 3 3 4 7 9 8 8 8
20 20 19 20 20 20 19 20 20 19 19 20 20 19 18 18 18 18 17 18 18 18 19 19 20 21 21 22 23 13 5 2 1 1 2 3 1 1 3 5 5 3 3 1 1 1 0 1 1 2 1 0 1 0 4 4 4 2 3 8 5 4 5 6 6 8 8 6 5 6 2 4 3 3 3 3 3 5 5 5 6 9 7 7 9 10 10 7
19 19 19 19 20 20 20 20 19 19 19 19 19 18 18 19 19 18 18 18 18 17 18 18 19 20 21 22 23 6 3 3 1 1 3 2 2 4 5 5 7 2 1 3 2 1 2 1 1 2 2 3 1 0 3 2 1 1 8 6 1 3 6 3 7 8 8 7 7 5 7 6 2 3 4 7 7 5 6 5 8 4 4 5 10 10 11 12
18 19 19 20 20 20 20 20 19 19 19 19 19 19 19 18 18 19 18 17 17 17 17 18 18 20 19 21 13 2 0 1 1 3 10 8 10 9 9 8 8 2 2 3 3 2 7 4 2 1 1 1 2 5 2 1 0 7 4 1 3 2 1 1 4 6 7 5 6 4 6 3 6 3 6 8 9 4 7 8 9 6 10 11 8 9 10 11
20 20 20 20 19 20 20 20 20 20 20 20 20 19 18 18 18 18 18 17 17 17 17 16 17 18 19 15 7 2 2 4 3 7 11 11 10 10 9 7 6 4 6 7 7 4 3 5 5 1 1 1 1 1 4 2 2 1 6 3 2 0 3 2 1 2 4 9 11 4 5 6 6 11 4 6 5 7 6 6 7 6 7 10 10 12 15 15
20 20 20 21 21 20 19 20 20 20 20 20 19 20 19 19 18 18 18 18 16 17 15 15 15 15 16 6 6 3 2 4 1 4 13 12 11 9 7 4 8 4 8 5 4 4 1 6 3 0 2 3 1 1 3 3 1 3 3 2 3 0 2 4 4 5 3 5 5 5 2 9 12 7 3 6 8 5 6 4 8 9 9 9 10 12 8 8
20 20 21 21 22 22 22 21 21 21 20 19 20 20 20 20 20 18 18 17 16 15 14 14 12 13 9 2 1 3 4 4 2 5 9 10 9 7 7 3 5 4 2 3 3 3 4 2 2 2 2 1 1 3 4 2 3 3 1 3 2 1 3 3 4 4 3 3 1 4 10 7 5 5 3 7 8 8 4 2 6 9 9 9 9 11 10 11
21 21 21 21 22 21 21 22 22 21 21 22 21 21 20 20 19 19 17 17 15 14 13 12 11 11 4 3 1 1 4 5 2 6 7 8 8 8 7 2 4 3 3 3 3 5 3 0 1 2 2 1 0 1 1 2 3 1 3 3 4 4 3 2 1 3 2 2 1 5 10 2 2 4 7 9 8 6 4 4 2 8 11 11 9 6 7 9
21 22 23 22 21 21 21 21 22 23 23 23 22 22 21 20 20 19 18 16 15 13 11 10 10 7 2 2 0 4 3 3 3 5 6 6 8 6 3 5 1 1 1 2 1 1 2 1 1 0 2 0 1 3 1 0 2 4 2 4 2 5 3 2 2 5 3 4 5 5 6 4 1 4 13 10 6 8 8 6 7 7 11 12 12 11 8 7
22 22 22 22 23 22 22 23 23 23 23 24 23 21 21 21 20 20 18 16 14 12 10 9 9 1 0 3 3 7 1 2 4 4 4 4 3 4 5 4 1 1 1 1 2 1 3 1 1 1 1 0 1 2 1 2 1 3 0 3 5 4 3 1 4 3 3 4 1 4 2 5 5 10 16 8 5 6 8 10 8 8 8 9 8 8 7 10
22 22 22 23 22 22 23 24 23 23 23 22 22 22 22 23 23 23 20 17 13 10 8 8 6 3 0 3 8 7 4 3 5 8 7 1 3 5 5 2 2 2 2 1 2 1 3 2 2 3 1 1 0 1 1 2 3 1 0 2 4 3 6 6 1 1 3 3 2 6 9 12 13 19 17 4 6 5 7 7 8 6 4 4 8 8 9 7
23 23 23 23 23 24 24 25 23 23 24 23 22 24 23 24 25 21 18 15 11 9 7 3 3 2 2 5 6 4 4 3 3 4 3 1 1 4 2 1 1 1 1 3 3 1 2 1 3 1 0 2 1 3 3 3 3 1 3 2 4 1 5 3 5 4 5 3 3 4 10 12 15 19 13 6 6 8 8 8 7 7 6 5 5 7 8 7
22 22 22 22 23 24 24 24 24 24 25 24 24 23 23 25 20 15 8 3 4 4 4 2 1 2 2 7 6 10 10 2 3 3 2 2 0 2 2 4 0 0 3 3 1 1 3 3 3 2 1 1 0 1 3 3 4 2 0 4 1 7 3 1 2 6 9 1 4 4 9 15 17 21 8 9 8 8 9 8 7 7 6 7 6 9 9 10
23 22 22 23 24 24 25 24 24 24 23 25 24 24 22 16 11 6 7 7 6 8 5 2 1 2 0 6 1 6 2 3 5 3 0 2 2 0 1 2 0 2 3 0 1 1 1 2 0 3 0 2 2 1 2 4 4 4 2 2 1 1 3 2 2 4 7 2 2 10 10 11 15 19 2 6 9 9 8 7 6 6 6 7 7 8 9 10
24 23 23 22 23 24 23 23 25 25 23 23 24 22 16 10 8 8 9 9 6 4 2 2 1 1 1 2 3 4 2 2 3 1 3 4 3 2 2 4 2 4 4 1 4 3 2 1 2 1 4 2 2 5 0 3 5 3 2 0 1 0 1 2 3 1 4 7 6 8 12 12 6 3 5 2 11 8 11 10 10 9 8 8 8 8 9 9
22 24 24 24 24 23 24 24 23 24 23 23 20 15 9 8 3 6 8 6 3 3 2 3 3 1 5 3 1 2 3 5 9 10 5 1 2 3 3 2 1 2 2 1 3 1 1 0 3 3 2 2 1 2 4 6 5 1 0 0 2 1 2 3 2 3 1 2 7 8 13 14 12 9 2 4 1 10 12 11 11 11 8 8 8 8 9 9
24 23 23 24 24 23 24 23 23 23 22 24 12 10 3 3 1 1 3 2 2 1 2 1 1 1 2 2 4 5 3 8 8 2 4 2 1 1 2 1 2 2 1 2 1 1 2 1 5 2 0 1 0 3 7 2 3 3 2 1 2 0 3 3 4 2 7 3 5 9 12 10 10 10 5 2 2 5 7 6 9 11 9 9 9 9 9 9
25 24 24 25 24 22 22 22 21 21 20 14 8 5 2 5 4 1 2 1 1 3 3 3 4 3 8 8 6 3 7 3 1 3 2 1 2 1 2 1 2 4 2 1 1 1 1 1 2 2 3 4 2 3 5 4 2 2 2 2 1 0 4 4 5 4 5 5 6 9 9 5 9 7 5 3 4 3 6 7 7 9 10 9 9 10 11 12
24 24 24 25 23 22 22 20 20 19 18 4 4 3 3 3 4 5 10 7 4 3 4 5 7 6 6 3 3 4 5 4 0 2 2 2 2 2 1 1 3 1 1 0 1 2 3 1 1 4 4 3 3 4 3 1 2 0 2 1 4 0 4 3 3 9 5 0 5 6 7 7 7 6 4 4 3 10 10 8 9 11 10 8 13 13 13 13
25 25 26 24 23 22 20 20 19 17 9 1 3 3 1 1 1 3 1 6 7 3 5 6 1 4 3 7 4 2 2 2 6 3 4 3 1 3 2 2 1 2 2 1 2 1 0 3 3 6 7 4 3 4 3 2 1 1 1 2 0 5 4 6 5 4 3 4 7 4 8 8 7 7 5 3 6 8 10 9 9 11 11 7 8 12 13 10
25 25 25 24 23 22 20 19 18 10 3 5 3 1 1 4 2 1 2 3 7 2 1 1 0 3 4 2 1 6 2 3 2 4 0 2 1 3 3 1 1 0 0 1 2 0 3 3 10 6 4 3 1 3 4 3 2 3 2 1 4 3 1 6 3 5 8 0 5 7 12 10 6 5 6 8 8 9 8 8 8 8 11 10 10 11 13 14
25 26 26 23 22 21 20 18 10 4 3 1 1 0 3 3 3 3 2 1 4 7 2 2 1 2 4 1 2 3 2 2 1 2 2 3 4 1 2 4 2 0 4 3 5 6 6 3 2 5 3 5 4 2 4 4 3 2 4 3 2 2 3 4 5 5 7 6 4 5 9 10 6 8 7 7 7 7 7 7 9 7 7 9 9 11 11 15
27 25 25 24 22 22 19 14 4 2 3 0 2 3 4 4 1 2 1 3 0 5 2 1 3 2 2 1 2 1 2 1 6 3 2 6 2 2 2 1 2 4 5 3 1 2 6 6 1 3 2 2 2 0 2 5 2 1 4 8 6 4 4 3 3 4 6 6 4 1 4 9 3 6 9 6 4 8 5 9 12 12 9 7 7 10 11 10
26 25 24 23 21 21 17 2 2 2 3 1 0 1 3 4 3 2 3 2 2 3 1 2 0 1 2 0 0 1 1 2 3 5 4 6 4 3 1 0 3 5 4 1 5 3 4 3 5 6 5 3 3 3 3 5 3 1 5 9 8 7 6 4 4 0 3 5 3 5 4 8 6 8 4 3 4 12 9 9 13 11 10 7 10 10 10 12
25 25 25 21 19 16 5 1 2 2 1 1 0 2 4 3 1 2 2 4 3 1 2 2 1 1 2 1 2 1 6 2 5 2 1 1 4 1 2 4 0 0 2 2 2 4 2 3 4 3 3 4 3 3 3 6 5 2 2 4 4 4 4 4 4 6 5 2 6 4 4 4 6 11 5 3 6 8 7 11 13 12 11 9 10 11 10 11
28 27 24 22 17 9 3 1 5 2 1 1 1 4 3 2 1 3 2 1 1 3 1 2 0 1 0 1 2 2 7 3 5 2 0 2 3 1 5 5 7 6 3 2 7 3 4 1 2 3 4 4 6 3 4 7 6 4 3 6 5 7 7 4 4 4 2 1 8 4 3 3 6 5 3 3 7 9 10 15 15 14 13 12 9 11 12 12
29 27 25 20 16 4 1 3 2 1 1 1 3 3 3 2 3 2 2 1 2 1 2 1 4 0 3 3 2 2 3 1 4 2 1 3 4 1 3 5 3 3 4 8 9 2 2 5 8 8 6 6 4 4 7 9 4 5 2 2 2 2 1 2 2 0 2 1 8 12 5 5 11 2 3 5 9 14 16 16 14 11 10 10 11 7 10 10
28 27 23 18 8 3 2 1 4 5 2 4 3 2 1 3 2 2 2 2 1 2 1 2 1 2 2 7 4 2 4 2 3 3 2 1 3 5 1 0 2 2 4 2 3 5 3 2 5 4 5 6 6 5 7 8 7 3 3 1 1 2 1 0 1 2 1 5 13 13 5 7 9 6 11 10 13 15 12 7 5 5 7 8 8 9 9 10
28 26 21 13 1 3 3 2 7 3 2 3 2 3 3 5 2 4 1 3 1 4 3 1 1 4 5 6 11 1 3 2 3 0 2 1 2 3 1 0 3 2 1 2 5 3 1 1 0 2 4 2 3 1 2 5 3 4 2 2 2 5 1 2 1 1 3 7 14 9 8 8 11 4 10 12 6 2 6 7 8 10 10 9 8 9 9 9
28 25 20 7 3 2 2 2 1 1 1 2 2 4 3 1 5 5 2 2 1 4 1 4 2 1 4 0 3 4 5 4 2 1 3 1 2 2 3 6 3 1 5 6 7 1 5 6 3 4 2 9 2 4 2 2 3 5 3 4 6 2 3 2 1 3 6 12 1 6 6 4 16 14 5 7 5 7 6 8 8 6 6 6 7 9 10 9
26 22 17 2 5 1 4 2 0 2 1 2 3 3 2 6 1 3 3 2 2 0 3 1 5 5 5 8 6 3 2 2 2 1 2 1 2 5 4 7 6 8 6 2 4 1 5 2 4 6 2 5 8 7 3 1 4 7 7 6 7 3 1 4 4 2 5 9 5 6 3 8 7 6 13 19 18 13 10 9 7 7 8 8 7 6 6 8
24 19 5 1 4 4 2 0 0 3 3 2 3 2 7 7 1 3 3 1 3 0 4 2 5 10 4 3 5 1 3 5 2 1 2 1 1 3 5 6 6 5 7 2 2 3 3 6 6 7 4 6 10 11 10 6 5 7 3 7 6 5 5 5 5 9 9 7 1 10 4 6 4 6 10 17 19 19 17 14 12 13 11 11 10 8 7 7
22 7 1 2 1 5 8 5 3 2 3 4 8 5 6 1 2 1 3 2 2 2 5 1 7 8 6 1 3 3 6 4 3 2 1 2 4 3 4 4 8 8 2 3 3 1 9 8 4 9 3 6 12 8 7 7 5 4 4 3 2 8 2 5 2 2 3 2 2 0 6 4 5 3 4 4 7 10 14 18 18 19 16 12 11 11 11 9
11 4 0 1 1 3 1 2 1 1 4 8 7 7 3 1 1 1 2 2 1 3 10 13 6 3 3 2 3 3 2 4 1 2 3 7 9 7 4 4 6 12 8 7 2 4 1 4 3 4 3 4 9 4 5 9 7 5 6 6 9 1 0 2 4 2 1 4 4 4 7 11 5 11 12 14 9 9 8 12 16 18 17 13 13 13 12 11
6 6 3 4 2 2 1 2 2 4 6 7 7 2 3 2 3 2 2 4 5 5 2 6 2 1 1 3 2 2 0 2 5 2 4 1 3 7 4 4 3 8 12 7 1 3 5 6 3 2 3 7 5 6 7 11 6 5 6 8 2 4 3 4 5 2 1 1 5 2 10 11 1 11 3 13 15 11 7 10 12 14 15 13 13 13 12 11
5 3 2 2 6 2 1 1 2 6 5 5 5 2 1 1 1 3 3 4 2 1 2 2 2 2 2 2 4 6 3 1 1 2 3 3 3 2 2 1 4 8 10 6 3 2 3 6 4 6 7 1 2 3 2 4 2 10 8 7 8 4 7 5 2 4 1 4 3 5 9 9 9 11 5 4 12 15 12 8 9 11 11 14 13 14 12 9
1 1 2 4 6 1 0 1 6 6 4 6 1 3 1 4 3 3 4 4 2 2 3 3 2 1 2 3 5 3 2 4 2 4 4 1 2 3 4 3 2 7 8 8 6 2 1 3 5 2 1 1 2 3 6 5 1 1 2 5 4 4 2 5 5 1 4 5 2 8 7 12 6 3 8 12 10 11 14 11 10 12 12 12 12 12 11 11
4 2 2 3 4 3 2 2 3 5 5 4 2 2 1 2 4 7 6 1 2 2 3 3 4 4 2 8 5 10 1 5 3 3 3 1 4 2 4 4 2 2 9 11 7 3 2 3 4 2 2 2 2 3 7 9 8 7 4 2 1 2 1 2 2 6 4 3 5 3 8 4 4 4 8 13 15 14 12 16 14 10 11 12 12 12 11 12
1 3 1 3 7 5 3 6 5 4 3 1 3 4 2 2 4 4 6 4 3 5 6 3 4 2 3 5 6 4 3 2 2 2 3 3 4 3 3 5 3 1 3 6 6 4 2 4 6 1 1 5 7 6 11 12 11 10 10 10 9 9 6 8 5 5 8 2 3 3 10 4 6 6 8 11 13 16 16 15 15 16 16 13 12 11 12 11
2 2 1 3 7 2 4 6 2 0 2 1 4 3 4 6 3 6 4 2 4 3 1 2 4 4 5 4 9 2 2 4 3 2 4 6 2 5 3 4 2 4 6 5 7 8 4 1 1 6 8 9 8 3 5 7 8 7 8 10 10 4 1 4 7 8 5 8 6 6 8 10 4 12 7 7 10 14 18 14 15 16 18 16 13 11 10 10
5 1 3 4 7 1 3 1 1 3 2 4 5 4 3 3 3 3 4 2 5 2 1 3 5 2 3 3 1 2 2 4 3 3 3 2 4 10 5 5 4 1 1 2 2 5 6 1 4 9 7 9 7 4 5 6 5 4 8 7 8 11 11 7 5 2 5 5 7 6 9 9 11 13 5 10 11 10 11 12 17 17 13 11 10 9 9 9
1 2 5 3 5 1 5 3 3 4 3 4 2 6 4 3 2 5 2 5 1 3 1 3 4 6 6 2 2 4 2 2 3 5 5 2 5 5 6 7 5 3 6 4 5 6 4 3 5 4 2 3 5 2 5 6 7 8 7 10 12 10 11 7 1 1 2 6 7 7 10 5 18 0 3 4 6 9 12 13 13 17 14 12 12 12 11 11
1 2 3 7 7 6 3 1 1 2 4 7 5 5 5 2 3 4 6 7 4 3 4 3 4 6 5 2 5 6 4 8 4 4 7 4 5 3 9 8 8 8 8 6 8 6 5 3 6 5 7 8 5 5 6 10 14 7 8 11 15 16 15 10 10 7 7 3 6 3 5 15 19 8 13 16 13 12 11 9 11 12 13 12 12 13 12 8
4 2 5 6 6 6 4 2 5 2 4 7 6 4 1 3 4 7 4 5 3 2 3 6 7 5 4 6 8 4 4 6 8 2 1 2 3 3 2 5 6 9 13 16 7 10 2 4 7 10 10 11 11 2 1 6 5 10 11 13 15 15 14 10 2 4 11 2 3 7 14 17 14 16 16 17 12 14 17 15 9 10 12 12 12 13 10 11
1 4 2 6 5 5 2 2 4 4 4 4 2 3 5 7 4 5 4 4 2 5 5 3 2 5 5 9 7 8 4 4 9 10 8 9 3 5 10 13 11 12 20 12 7 2 0 3 10 12 15 17 12 10 6 7 11 11 11 13 13 15 14 13 10 12 4 2 8 18 13 7 18 18 17 15 18 18 15 13 12 9 10 12 11 8 8 9
4 1 1 1 0 4 6 4 7 7 5 1 4 1 3 9 7 6 6 2 7 5 3 1 1 5 10 9 10 6 4 7 4 3 4 5 6 5 7 4 7 4 2 2 13 7 3 6 5 7 17 17 16 15 10 5 9 9 11 11 14 15 15 17 17 10 6 10 18 6 4 4 13 14 17 20 19 17 17 18 16 11 9 7 4 5 8 9
4 0 1 1 2 2 3 6 8 5 9 2 3 2 5 7 9 1 2 6 5 4 2 6 11 12 14 13 8 6 6 7 2 1 3 4 5 6 4 4 1 8 7 3 2 1 1 8 7 6 14 15 14 14 10 8 5 10 10 11 11 14 17 16 12 10 11 12 13 12 16 17 20 21 22 21 19 16 15 14 13 11 10 6 6 8 10 11
3 2 3 2 3 3 4 3 3 4 4 3 3 2 3 3 7 14 6 1 6 6 2 4 13 15 14 13 9 7 7 7 9 10 4 6 10 4 4 6 3 0 2 4 3 2 3 5 3 2 5 5 3 2 5 6 2 3 8 11 12 9 8 10 8 9 7 11 14 19 18 21 22 20 17 18 13 10 11 13 13 12 7 7 9 10 11 13
1 1 1 3 3 4 1 1 4 3 3 3 2 2 4 2 4 8 13 7 10 6 5 10 12 17 12 8 9 9 7 9 12 15 14 10 10 2 2 3 1 3 2 2 3 2 6 4 1 1 5 6 5 3 6 4 0 1 3 8 12 13 13 11 11 7 7 16 16 11 12 16 20 16 8 10 12 10 12 13 12 6 5 6 9 10 11 12
1 1 1 0 2 2 3 2 3 1 1 0 1 2 4 7 7 9 10 5 4 9 10 9 11 10 13 13 14 9 11 14 16 17 13 11 11 11 10 9 3 2 2 2 1 3 4 2 3 3 4 2 2 3 7 6 3 2 10 13 13 11 12 9 10 8 15 15 9 10 17 17 15 7 7 15 14 11 11 11 9 5 3 5 8 10 11 10
Wind_Direction
342 341 340 341 341 342 340 341 339 337 336 332 337 335 330 332 332 329 329 330 331 332 333 331 333 331 331 332 332 335 336 341 319 338 3 243 222 305 303 327 338 336 340 35 9 33 350 14 9 342 54 111 244 131 235 107 134 100 193 190 226 191 199 183 186 185 195 188 207 179 178 163 234 307 294 5 33 319 334 60 301 11 40 40 91 118 120 123
342 340 339 338 339 337 337 335 334 333 332 331 332 329 330 331 330 330 329 329 330 331 333 334 332 333 332 331 334 335 340 325 310 296 235 241 249 291 338 340 344 350 352 39 41 24 51 354 341 3 92 169 324 173 138 230 149 177 182 182 229 184 217 163 180 190 136 219 141 182 185 165 222 154 260 147 231 284 339 319 325 309 42 68 99 121 135 141
342 341 339 338 337 336 333 329 333 337 332 330 330 329 329 329 328 328 331 330 328 330 330 332 333 332 332 331 331 338 344 325 282 20 336 263 254 286 328 343 340 1 50 334 267 122 109 244 265 18 1 132 344 178 171 243 149 230 149 215 227 179 200 201 172 197 205 177 205 163 203 171 227 175 153 208 227 150 211 254 293 240 221 152 139 140 142 160
342 340 338 336 336 336 336 334 331 330 330 326 330 330 327 329 329 328 329 329 330 331 331 331 332 332 331 331 334 336 8 321 42 273 278 272 35 5 339 331 327 18 10 237 215 181 70 80 75 93 49 107 273 59 153 231 154 269 181 218 213 179 174 232 194 196 206 193 212 167 163 189 218 179 158 194 215 249 247 201 202 217 217 171 155 151 152 166
341 340 339 337 334 333 331 331 331 329 327 326 326 331 330 328 327 328 327 328 327 329 328 331 333 333 333 332 329 7 335 43 240 277 268 264 19 7 350 346 352 32 358 294 97 42 80 86 90 51 88 204 343 98 248 259 197 106 221 236 159 195 214 222 204 203 196 210 220 171 170 211 123 181 185 166 196 217 202 247 238 179 151 168 172 165 157 160
343 341 339 336 335 331 332 332 330 328 327 326 326 329 327 326 324 322 326 325 327 327 328 329 331 332 333 333 329 342 34 327 309 346 332 27 27 15 4 344 332 30 7 33 43 351 45 350 66 45 16 99 215 177 283 235 94 234 263 268 232 181 164 253 195 219 201 215 217 189 205 107 171 217 205 190 203 223 203 200 196 183 175 184 157 152 162 166
345 342 341 338 335 333 331 329 328 329 329 327 325 324 322 322 321 322 323 324 322 325 325 328 331 332 339 338 311 76 85 270 9 324 16 19 17 10 357 3 30 49 49 41 18 45 13 40 73 4 80 68 325 231 284 305 352 220 238 355 332 166 208 239 223 298 227 207 223 214 142 181 169 222 196 205 224 207 212 204 171 172 147 136 158 186 179 176
344 342 339 338 336 333 331 330 329 328 326 325 324 321 323 325 324 320 319 322 321 321 323 327 329 336 351 354 2 351 6 253 297 341 4 12 7 2 348 55 26 47 52 67 33 21 48 41 41 338 73 149 234 42 308 357 349 233 289 321 298 264 233 276 269 276 259 259 275 27 164 200 187 204 138 231 230 214 190 220 137 145 151 168 176 189 193 174
344 341 340 340 341 338 336 337 330 328 327 325 324 321 321 320 320 319 316 313 317 319 319 325 331 334 13 63 68 352 283 237 145 343 8 11 349 350 34 19 12 52 118 45 47 79 93 314 38 58 237 47 36 358 352 73 294 40 271 326 310 296 299 300 329 285 257 274 221 264 239 224 234 34 244 220 225 230 173 205 136 143 152 168 194 194 173 180
344 342 340 342 342 337 334 331 329 329 327 325 325 325 321 318 315 313 312 310 311 314 317 321 324 340 32 29 346 38 264 121 27 358 7 4 356 360 26 74 31 21 40 342 39 51 68 182 113 279 154 329 317 237 354 130 221 310 266 279 287 268 325 308 191 300 16 235 207 217 253 272 204 169 248 227 215 223 212 168 209 154 170 177 183 196 203 193
344 345 342 341 340 336 333 333 333 330 331 330 325 321 317 316 314 311 310 308 306 311 311 315 317 349 49 77 99 246 287 46 350 340 2 360 2 10 314 322 29 67 64 8 62 143 170 142 216 266 61 249 39 296 94 233 332 292 253 311 317 306 267 276 339 292 338 287 209 203 253 85 275 176 231 229 208 197 212 190 177 189 183 182 180 187 201 222
347 345 344 341 339 336 333 333 333 330 328 327 324 320 318 314 310 308 304 302 304 301 307 307 317 16 84 114 181 225 33 244 310 315 339 345 307 230 257 240 169 175 105 9 302 243 159 168 97 63 180 14 327 300 324 302 306 268 359 331 297 342 314 252 212 253 159 259 168 156 312 253 178 231 229 215 196 195 204 216 191 190 184 178 178 187 192 216
345 343 341 340 337 334 334 334 331 330 329 329 326 320 315 310 305 303 299 294 287 289 295 303 310 113 76 330 232 233 290 299 320 323 322 232 264 263 246 250 218 188 188 150 259 226 168 130 100 57 229 89 194 183 333 310 269 345 152 139 337 343 292 242 218 196 167 252 127 138 237 238 226 228 230 151 190 194 209 216 225 216 206 184 176 196 206 210
345 342 341 338 336 336 335 333 331 332 331 328 324 321 315 310 310 306 298 283 269 265 277 280 97 52 82 244 280 257 253 267 297 326 306 332 79 295 1 17 191 206 204 206 254 201 135 159 127 145 115 120 279 287 14 338 23 168 253 125 205 223 259 196 177 192 215 228 194 150 231 238 242 238 227 166 178 177 199 213 214 221 219 202 198 202 204 209
344 341 340 337 337 338 335 334 333 332 330 327 324 320 315 317 321 318 313 286 214 229 228 197 64 88 37 270 266 280 275 260 338 295 244 93 62 336 338 343 317 8 212 188 220 72 133 103 79 46 218 285 15 35 344 16 351 340 355 268 276 184 304 318 275 168 201 290 158 140 241 236 237 245 216 158 175 187 193 200 202 185 193 195 188 198 205 205
342 341 339 336 335 337 334 334 333 332 330 326 325 319 320 324 346 25 91 100 117 115 85 82 199 135 133 313 269 306 10 49 349 344 294 128 147 163 256 237 338 5 27 248 13 130 77 126 122 191 170 13 53 95 20 5 336 342 155 281 256 207 249 347 284 201 196 156 225 188 237 233 246 251 254 145 167 194 208 213 224 221 207 204 191 192 202 207
341 341 338 336 335 336 333 334 334 332 329 327 325 321 329 339 47 79 102 107 114 105 87 118 99 140 47 234 279 23 348 292 255 313 328 190 152 159 30 24 18 337 1 12 41 76 6 84 314 51 24 122 153 96 96 308 289 289 28 181 244 169 264 195 288 262 193 184 229 229 231 237 250 334 54 145 157 187 207 208 216 211 201 207 206 195 199 206
340 339 337 336 336 333 334 333 333 332 330 326 328 314 313 310 13 70 74 80 89 81 65 60 121 43 291 340 24 310 303 310 345 317 331 323 120 86 78 45 328 15 38 34 355 91 302 279 39 179 18 10 65 84 133 231 200 190 295 78 321 277 138 210 128 256 58 217 221 239 243 247 256 272 270 87 207 175 202 209 213 210 198 205 204 202 201 205
340 339 338 339 335 334 333 333 333 333 332 325 329 325 327 8 17 101 107 117 74 2 12 325 51 35 168 273 307 317 327 303 293 263 314 52 91 107 65 110 57 20 334 59 264 89 351 69 26 51 132 48 303 158 179 150 114 101 129 160 130 128 253 207 254 330 18 318 249 238 242 252 261 270 295 354 178 205 238 236 217 218 202 198 205 205 204 206
340 339 337 337 335 332 334 333 333 332 333 332 356 357 14 9 3 334 305 102 189 190 235 256 193 305 317 300 295 274 287 301 15 297 342 306 86 49 42 62 352 52 79 195 308 64 94 124 164 173 177 184 193 154 148 180 125 110 89 71 314 10 296 291 287 274 36 334 251 249 269 268 271 275 296 259 286 239 223 235 250 245 215 194 203 205 209 208
340 339 337 336 333 334 333 333 331 332 333 333 322 49 39 338 12 336 337 293 241 266 244 247 192 209 235 294 297 20 4 327 355 301 274 119 94 100 301 32 15 360 320 231 149 306 69 82 302 181 185 159 195 154 125 80 57 73 109 72 311 121 278 270 284 307 339 246 294 309 305 284 267 275 264 272 237 257 241 220 226 233 236 203 198 208 210 213
340 338 337 336 334 333 332 332 330 334 342 70 53 72 183 218 223 225 66 328 317 233 228 257 247 274 279 252 250 185 145 318 323 291 292 146 229 131 297 103 140 204 312 345 15 28 63 196 225 201 197 163 137 135 147 154 129 85 152 180 355 280 237 271 277 313 327 351 260 311 317 289 282 279 278 249 242 242 240 226 216 218 233 210 221 208 212 214
340 338 336 336 334 331 333 330 329 340 20 26 33 59 333 305 345 329 179 256 274 274 322 347 342 273 292 267 235 114 99 202 254 295 238 101 49 189 151 101 182 216 352 98 204 229 323 289 223 209 159 133 69 131 128 106 100 130 86 90 213 232 78 285 296 324 327 263 295 308 294 293 281 262 255 249 237 249 255 253 243 217 222 214 200 214 212 214
339 338 337 336 334 333 328 332 329 46 29 350 208 57 304 305 341 30 45 240 294 314 209 229 177 226 271 43 201 114 144 267 118 298 300 107 142 197 96 159 141 46 241 192 191 187 206 219 214 156 174 171 198 198 142 157 223 236 175 172 161 166 213 188 265 334 305 307 217 258 284 282 264 275 270 254 245 257 268 272 268 250 232 224 208 207 219 216
338 338 338 336 334 331 329 324 40 335 301 150 250 252 315 330 23 125 67 336 5 288 208 349 168 236 225 65 115 128 237 276 219 224 231 128 109 80 231 179 108 231 222 204 218 286 277 261 87 91 107 133 147 109 214 148 209 297 224 189 194 173 197 262 295 5 5 332 339 10 293 263 282 271 255 251 266 260 236 240 247 244 229 217 218 215 216 228
338 337 338 337 335 333 323 345 299 319 356 82 123 358 315 357 42 78 103 58 10 280 355 347 160 323 147 344 145 185 65 315 220 217 192 201 172 153 88 247 146 234 229 160 211 200 216 229 172 224 226 183 165 194 235 156 186 102 272 191 189 181 182 202 251 69 288 238 255 72 196 278 320 291 251 260 245 248 249 239 247 242 237 202 215 211 212 213
337 337 336 336 335 338 16 334 295 315 35 347 344 326 322 342 1 63 52 3 30 326 302 243 60 327 109 230 175 88 10 264 294 295 187 183 177 136 157 236 20 5 150 161 34 280 151 259 200 221 198 197 171 217 249 148 134 237 245 154 159 171 176 211 205 179 235 269 290 278 180 251 296 265 269 236 253 267 282 265 250 239 237 218 206 213 213 214
336 335 334 334 334 338 201 324 4 28 221 282 332 328 317 325 73 53 81 64 342 284 332 318 216 318 111 314 83 174 254 314 346 315 51 299 147 311 193 203 188 195 194 120 226 248 148 176 153 194 206 191 214 191 205 166 144 215 223 158 164 178 192 196 178 212 224 345 287 275 170 241 231 264 161 191 268 265 252 246 244 239 232 232 213 209 215 214
335 333 331 330 330 354 119 160 148 242 233 284 326 315 316 63 82 94 113 107 250 300 75 57 272 15 323 336 305 263 291 161 220 255 318 63 41 140 208 229 178 205 225 181 227 213 258 182 202 186 163 210 215 207 179 169 174 262 183 78 100 103 119 163 171 263 268 211 256 253 166 229 266 188 198 226 233 244 243 241 244 244 241 231 231 213 213 217
333 331 328 329 337 68 31 69 210 239 317 317 313 309 47 54 35 35 23 318 326 311 41 257 26 273 17 334 302 305 301 285 246 303 19 175 335 34 13 169 119 152 225 244 241 217 228 294 179 131 186 200 188 212 174 180 194 138 103 114 11 36 31 27 130 151 318 242 246 240 189 183 276 177 210 211 221 227 242 263 272 261 250 238 225 220 202 208
332 329 324 328 271 225 131 328 255 261 261 283 295 42 69 38 106 98 76 235 20 270 355 15 293 4 345 360 324 287 240 325 311 263 287 338 322 48 35 7 37 40 19 333 267 258 256 306 235 244 152 114 137 167 228 198 202 159 205 168 262 330 30 37 329 123 195 258 246 236 213 177 231 238 218 227 238 177 188 227 236 238 236 235 221 219 210 199
331 327 323 321 202 154 177 256 199 175 277 269 51 49 69 290 9 73 244 34 48 288 47 293 280 308 315 224 246 290 309 314 240 145 207 187 201 175 207 200 153 227 242 224 262 13 252 215 212 293 211 147 150 153 276 141 171 162 122 123 131 244 127 310 161 245 210 231 254 201 188 239 235 242 287 299 277 260 252 236 237 248 263 258 245 221 207 196
330 327 322 295 179 185 248 237 32 308 2 49 66 51 56 92 29 266 291 332 255 169 314 159 281 312 308 325 281 274 214 240 274 258 172 275 188 258 233 205 193 198 260 122 231 243 272 280 213 215 236 201 140 170 190 180 215 159 162 153 143 176 120 208 231 225 266 261 261 333 137 238 278 275 211 244 251 248 249 260 250 237 253 259 253 249 238 205
328 327 331 248 205 228 255 182 224 355 18 41 85 31 51 60 266 268 266 249 286 253 290 339 307 302 298 226 266 182 318 224 164 265 158 237 152 262 267 236 200 233 225 134 226 169 288 310 257 148 247 162 182 196 182 161 154 192 128 155 182 175 170 214 189 207 227 245 275 221 222 238 136 250 202 210 223 232 239 246 256 257 247 253 257 257 246 229
325 321 275 330 318 261 252 262 289 18 56 37 48 80 90 239 222 278 280 297 285 284 263 246 310 300 300 219 269 247 198 309 182 228 206 159 253 196 219 227 210 193 101 206 183 130 227 250 252 205 221 175 199 202 145 121 130 202 164 127 127 212 130 181 208 285 291 304 342 106 204 219 221 262 295 272 290 253 225 225 238 249 252 249 258 255 249 238
338 330 359 343 347 288 301 208 144 65 52 36 72 49 87 182 261 100 269 197 272 314 312 311 266 301 259 294 280 267 168 223 278 79 270 215 239 251 196 209 186 182 173 198 149 195 67 267 264 245 225 197 212 140 200 150 201 198 127 194 213 130 46 346 318 264 11 53 269 229 307 273 323 283 269 278 254 254 248 236 222 234 245 244 245 246 244 237
5 338 39 326 326 310 139 149 127 66 56 80 86 57 211 292 218 223 275 296 290 305 334 307 333 210 312 289 277 229 332 240 256 230 253 175 293 232 233 242 173 188 200 160 296 203 154 244 288 133 247 243 219 193 185 189 140 99 181 201 99 125 151 179 214 315 39 309 282 206 230 263 339 279 254 227 257 257 251 242 241 232 234 240 240 242 238 231
341 334 241 16 323 338 130 179 60 47 75 70 52 4 188 286 277 220 261 304 338 87 223 259 258 152 269 269 287 291 162 240 193 205 272 172 267 103 127 254 192 193 203 198 193 277 156 291 279 216 203 279 76 110 325 271 172 187 196 154 164 185 225 204 198 244 202 240 252 266 241 246 212 245 333 297 235 251 250 243 243 244 235 234 241 244 245 234
279 35 30 336 336 35 137 58 68 61 68 61 57 18 268 240 259 268 261 263 243 279 258 230 214 242 246 293 271 266 202 259 290 250 297 162 277 186 185 181 263 205 202 172 214 212 142 181 285 358 70 235 34 126 214 197 294 280 44 212 174 88 271 148 189 217 124 242 234 270 240 247 208 193 208 249 264 250 254 247 231 233 232 229 232 237 235 237
20 43 338 320 331 21 14 50 55 40 58 52 318 239 215 287 276 280 281 224 282 144 242 275 200 273 215 251 276 297 247 234 255 263 198 178 251 207 199 181 213 197 184 183 195 153 211 169 259 280 326 87 219 193 198 167 186 200 205 218 199 215 236 139 138 199 169 190 190 225 270 274 271 220 210 226 228 238 233 247 250 238 234 234 230 229 226 225
324 100 271 312 345 327 31 35 45 24 28 287 202 236 290 253 314 279 296 252 237 206 230 243 278 244 290 312 285 178 277 264 229 243 230 268 172 314 231 176 181 147 149 176 193 187 190 184 229 50 320 207 232 196 188 187 189 189 192 209 194 177 159 164 230 191 234 205 229 196 260 263 261 255 232 248 237 234 231 228 242 249 247 237 235 231 225 225
64 42 295 327 336 7 59 12 3 62 75 347 327 318 301 309 289 280 294 308 182 274 208 260 261 267 263 247 260 291 244 271 231 234 238 227 244 188 272 189 172 154 135 172 203 200 173 149 177 236 219 227 239 204 221 200 183 200 193 214 194 196 182 183 194 210 201 231 264 284 311 266 248 263 251 248 256 244 244 229 229 237 240 242 238 238 236 226
41 206 264 326 342 43 55 45 5 36 329 252 302 283 246 269 248 270 312 322 330 204 252 229 244 259 242 237 345 245 234 263 217 213 252 276 255 216 231 179 183 242 117 264 184 211 151 242 221 257 280 275 268 203 206 209 193 230 232 233 194 204 196 212 210 197 196 213 219 248 251 287 280 260 246 253 256 264 273 266 245 236 240 240 242 241 230 228
226 290 329 297 357 73 74 79 324 320 291 291 278 262 289 259 312 323 293 307 287 319 269 297 283 186 268 240 230 272 175 331 197 223 283 234 274 240 230 228 193 226 163 217 176 167 173 193 216 263 279 249 235 198 219 211 205 217 217 211 218 208 201 211 270 180 286 225 201 196 249 278 263 46 248 237 275 274 271 267 244 243 235 230 228 232 229 223
255 264 242 305 350 52 93 161 114 287 331 320 318 310 329 305 218 294 290 291 297 240 340 278 259 297 274 265 278 263 218 209 284 247 247 230 259 279 279 242 212 224 212 211 189 165 204 189 161 218 232 251 243 202 203 197 200 196 212 201 202 200 197 183 216 210 222 258 192 194 274 256 261 310 303 301 306 296 279 257 268 247 240 224 224 226 222 196
26 20 315 335 12 25 62 72 95 39 326 349 337 300 270 308 319 312 289 272 215 307 294 274 278 253 269 330 309 291 272 217 211 273 287 288 289 295 194 298 230 228 225 215 214 147 230 189 198 214 224 243 246 235 45 123 117 205 192 192 193 200 197 202 145 174 219 205 273 248 229 258 290 289 293 293 296 301 304 304 288 270 251 235 226 221 200 186
142 64 336 335 342 50 93 33 32 32 353 339 295 334 327 327 297 297 30 327 327 341 297 241 270 343 316 326 312 299 262 262 227 241 264 269 226 246 301 290 283 248 238 224 186 86 141 243 224 227 240 246 254 243 213 176 205 200 180 190 188 190 192 196 196 214 146 73 271 244 240 269 270 279 278 288 299 303 297 287 286 275 264 244 229 214 196 188
61 289 104 200 128 286 8 332 15 329 306 263 259 346 311 326 341 349 312 259 312 309 316 281 258 308 312 317 308 291 308 293 253 237 249 245 285 298 313 325 336 17 89 144 163 191 187 249 243 194 251 251 249 248 240 197 230 206 186 175 182 187 190 198 210 206 130 201 223 234 86 236 269 272 283 286 288 288 286 286 281 272 261 256 212 176 180 185
122 202 183 328 60 263 176 281 315 309 309 241 244 352 339 332 316 340 301 307 320 302 43 304 309 324 322 321 324 297 305 324 301 251 272 291 295 315 306 329 269 38 43 39 155 188 103 260 262 215 262 268 253 240 234 211 223 200 181 180 185 185 195 202 214 219 225 241 259 294 286 279 272 274 275 280 284 281 280 283 286 281 256 229 200 191 186 179
18 45 326 327 238 274 265 293 295 338 318 326 358 300 342 313 309 330 333 319 311 295 276 288 308 317 320 312 307 299 289 278 290 300 304 283 293 243 251 218 262 297 160 176 177 226 135 239 127 224 259 293 320 156 143 178 198 183 185 184 188 189 190 204 216 231 243 271 270 263 269 275 272 265 274 276 280 283 285 285 277 266 255 222 204 195 188 183
177 171 242 319 321 276 265 17 333 327 338 326 34 294 333 244 307 329 299 252 232 268 309 306 309 314 311 301 293 274 262 290 294 278 276 268 262 198 161 279 173 279 344 196 183 218 185 279 351 251 335 324 351 124 144 145 176 341 244 203 191 185 192 202 213 201 197 234 244 261 272 260 263 278 277 280 283 285 292 297 291 260 234 217 208 201 192 189
306 242 159 147 319 317 356 293 290 42 328 241 330 336 344 285 309 321 313 274 243 245 271 296 306 306 299 313 307 296 307 301 287 281 269 256 247 250 237 244 199 184 309 269 271 236 202 262 313 327 345 286 281 58 123 112 103 266 249 216 187 191 198 197 215 200 220 228 242 243 246 248 260 275 300 293 294 296 298 291 293 305 256 223 222 205 191 182